Fecha, hora, temperatura, viento dirección y velocidad, humedad y presión.

  • 16-01-2019 15:00:00 | 3.20°C | Noroeste |48.00 km/h | 76.00% | 767.20 hPa
  • 16-01-2019 14:00:00 | 2.60°C | Noroeste |50.00 km/h | 74.00% | 767.40 hPa
  • 16-01-2019 13:00:00 | 2.40°C | Noroeste |46.00 km/h | 70.00% | 768.30 hPa
  • 16-01-2019 12:00:00 | 3.10°C | Noroeste |42.00 km/h | 35.00% | 769.50 hPa
  • 16-01-2019 11:00:00 | 2.50°C | Noroeste |37.00 km/h | 26.00% | 769.80 hPa
  • 16-01-2019 10:00:00 | 1.10°C | Noroeste |30.00 km/h | 25.00% | 769.50 hPa
  • 16-01-2019 09:00:00 | 0.00°C | Noroeste |41.00 km/h | 25.00% | 768.70 hPa
  • 16-01-2019 08:00:00 | -0.10°C | Noroeste |44.00 km/h | 23.00% | 768.30 hPa
  • 16-01-2019 07:00:00 | 0.60°C | Noroeste |41.00 km/h | 13.00% | 768.20 hPa
  • 16-01-2019 06:00:00 | 0.20°C | Noroeste |34.00 km/h | 14.00% | 768.00 hPa
  • 16-01-2019 05:00:00 | 0.00°C | Noroeste |32.00 km/h | 13.00% | 768.30 hPa
  • 16-01-2019 04:00:00 | 0.40°C | Noroeste |30.00 km/h | 12.00% | 768.70 hPa
  • 16-01-2019 03:00:00 | 0.00°C | Noroeste |28.00 km/h | 15.00% | 768.90 hPa
  • 16-01-2019 02:00:00 | 0.50°C | Norte |24.00 km/h | 15.00% | 769.10 hPa
  • 16-01-2019 01:00:00 | 0.70°C | Norte |19.00 km/h | 12.00% | 769.50 hPa
  • 16-01-2019 00:00:00 | 1.10°C | Nordeste |16.00 km/h | 18.00% | 770.10 hPa
  • 15-01-2019 23:00:00 | 1.70°C | Nordeste |11.00 km/h | 20.00% | 770.20 hPa
  • 15-01-2019 22:00:00 | 2.10°C | Nordeste |17.00 km/h | 14.00% | 769.90 hPa
  • 15-01-2019 21:00:00 | 2.40°C | Este |16.00 km/h | 17.00% | 769.70 hPa
  • 15-01-2019 20:00:00 | 2.40°C | Este |14.00 km/h | 13.00% | 769.50 hPa
  • 15-01-2019 19:00:00 | 2.50°C | Este |15.00 km/h | 18.00% | 769.30 hPa
  • 15-01-2019 18:00:00 | 3.80°C | Este |14.00 km/h | 17.00% | 768.90 hPa
  • 15-01-2019 17:00:00 | 5.90°C | Nordeste |7.00 km/h | 27.00% | 768.90 hPa
  • 15-01-2019 16:00:00 | 6.70°C | Nordeste |8.00 km/h | 33.00% | 768.70 hPa
    • diseño web asturias Información sobre el estado de las mareas, altura de la marejada, temperatura del agua y otros datos de Gijón en Asturias.

      Surf Gijón